�������l�o���
Date,Time,MP-1(��Sv/h),MP-2(��Sv/h),MP-3(��Sv/h),MP-4(��Sv/h),MP-5(��Sv/h),MP-6(��Sv/h),MP-7(��Sv/h),MP-8(��Sv/h),����,����(m/s),���J
2017/09/28,00:00,0.959,1.533,0.997,1.818,1.266,0.519,0.945,0.872,��,5.3,��
2017/09/28,00:10,0.962,1.531,0.998,1.819,1.264,0.519,0.949,0.870,��,3.6,��
2017/09/28,00:20,0.963,1.531,0.995,1.818,1.264,0.520,0.946,0.870,��,2.5,��
2017/09/28,00:30,0.963,1.530,0.993,1.819,1.265,0.520,0.947,0.871,��쓌,3.3,�L
2017/09/28,00:40,0.962,1.532,0.995,1.818,1.264,0.518,0.944,0.872,��쓌,4.6,�L
2017/09/28,00:50,0.960,1.531,0.995,1.818,1.265,0.519,0.949,0.871,��,4.1,��
2017/09/28,01:00,0.963,1.531,0.997,1.818,1.262,0.518,0.947,0.874,��,3.4,��
2017/09/28,01:10,0.963,1.531,0.994,1.817,1.264,0.518,0.947,0.871,��쐼,3.1,��
2017/09/28,01:20,0.961,1.534,0.998,1.819,1.266,0.517,0.947,0.873,��쐼,3.5,��
2017/09/28,01:30,0.965,1.536,0.997,1.820,1.263,0.520,0.947,0.870,��쐼,3.3,�L
2017/09/28,01:40,0.961,1.533,0.995,1.816,1.264,0.519,0.948,0.871,��쐼,4.8,�L
2017/09/28,01:50,0.962,1.531,0.994,1.816,1.265,0.519,0.947,0.870,��쐼,5.3,��
2017/09/28,02:00,0.964,1.531,0.995,1.818,1.264,0.520,0.946,0.872,��쐼,4.3,�L
2017/09/28,02:10,0.964,1.531,0.996,1.816,1.263,0.519,0.946,0.871,��쓌,3.2,�L
2017/09/28,02:20,0.964,1.532,0.997,1.815,1.265,0.519,0.947,0.872,��,4.6,��
2017/09/28,02:30,0.961,1.531,0.997,1.820,1.265,0.518,0.947,0.872,��,4.6,�L
2017/09/28,02:40,0.962,1.532,0.996,1.816,1.264,0.520,0.946,0.871,��,4.2,�L
2017/09/28,02:50,0.964,1.530,0.996,1.818,1.263,0.518,0.947,0.872,��,4.9,�L
2017/09/28,03:00,0.964,1.530,0.994,1.816,1.265,0.518,0.946,0.871,��,4.0,�L
2017/09/28,03:10,0.961,1.531,0.994,1.817,1.262,0.520,0.946,0.871,��,4.0,�L
2017/09/28,03:20,0.961,1.530,0.996,1.817,1.266,0.520,0.948,0.871,��,4.3,�L
2017/09/28,03:30,0.963,1.530,0.994,1.818,1.264,0.520,0.948,0.872,��,4.5,�L
2017/09/28,03:40,0.960,1.525,0.995,1.813,1.259,0.519,0.947,0.870,��쓌,4.7,�L
2017/09/28,03:50,0.956,1.519,0.991,1.811,1.251,0.520,0.945,0.869,��쐼,3.0,�L
2017/09/28,04:00,0.951,1.511,0.987,1.806,1.247,0.518,0.943,0.866,��,5.3,�L
2017/09/28,04:10,0.944,1.498,0.982,1.797,1.239,0.516,0.940,0.866,��,3.8,�L
2017/09/28,04:20,0.940,1.489,0.980,1.790,1.229,0.515,0.937,0.865,��,3.1,�L
2017/09/28,04:30,0.940,1.485,0.979,1.786,1.230,0.514,0.937,0.863,��쐼,2.6,�L
2017/09/28,04:40,0.940,1.481,0.977,1.784,1.224,0.511,0.935,0.861,��쐼,2.3,�L
2017/09/28,04:50,0.936,1.476,0.970,1.777,1.218,0.511,0.932,0.860,��쓌,11.0,�L
2017/09/28,05:00,0.931,1.465,0.966,1.765,1.212,0.510,0.928,0.856,�쓌,8.1,�L
2017/09/28,05:10,0.924,1.456,0.962,1.757,1.205,0.508,0.927,0.853,-,CALM,�L
2017/09/28,05:20,0.919,1.447,0.957,1.744,1.195,0.507,0.923,0.851,��,8.3,�L
2017/09/28,05:30,0.917,1.448,0.956,1.742,1.194,0.508,0.923,0.854,��,1.2,�L
2017/09/28,05:40,0.917,1.447,0.953,1.738,1.194,0.506,0.919,0.852,��쐼,1.7,�L
2017/09/28,05:50,0.913,1.437,0.949,1.730,1.187,0.504,0.919,0.848,��쓌,5.8,�L
2017/09/28,06:00,0.909,1.432,0.947,1.726,1.181,0.503,0.918,0.847,�쓌,3.2,�L
2017/09/28,06:10,0.911,1.431,0.946,1.725,1.181,0.502,0.917,0.848,���쓌,5.7,�L
2017/09/28,06:20,0.910,1.429,0.946,1.723,1.178,0.503,0.918,0.847,��쓌,2.3,�L
2017/09/28,06:30,0.909,1.427,0.943,1.719,1.175,0.502,0.914,0.843,��,1.4,�L
2017/09/28,06:40,0.907,1.419,0.938,1.710,1.167,0.499,0.912,0.844,��,2.0,�L
2017/09/28,06:50,0.906,1.416,0.939,1.711,1.168,0.499,0.911,0.845,�쐼,2.2,�L
2017/09/28,07:00,0.903,1.419,0.936,1.702,1.162,0.500,0.910,0.842,��,3.0,�L
2017/09/28,07:10,0.901,1.412,0.936,1.702,1.162,0.500,0.910,0.840,�k��,3.4,�L
2017/09/28,07:20,0.903,1.413,0.933,1.702,1.161,0.500,0.908,0.842,�k��,3.9,�L
2017/09/28,07:30,0.902,1.411,0.932,1.700,1.152,0.502,0.909,0.842,�k�k��,2.5,�L
2017/09/28,07:40,0.894,1.403,0.925,1.691,1.145,0.499,0.905,0.838,�k�k��,1.7,�L
2017/09/28,07:50,0.897,1.403,0.926,1.691,1.145,0.498,0.904,0.838,�k�k��,5.7,�L
2017/09/28,08:00,0.893,1.398,0.924,1.682,1.138,0.498,0.902,0.836,�k�k��,7.9,�L
2017/09/28,08:10,0.891,1.394,0.923,1.681,1.133,0.499,0.902,0.836,�k�k��,6.8,�L
2017/09/28,08:20,0.894,1.400,0.922,1.682,1.133,0.499,0.903,0.837,�k�k��,5.2,�L
2017/09/28,08:30,0.895,1.405,0.925,1.685,1.131,0.498,0.904,0.837,�k�k��,3.9,�L
2017/09/28,08:40,0.901,1.407,0.928,1.689,1.134,0.499,0.905,0.836,�k�k��,3.3,�L
2017/09/28,08:50,0.900,1.408,0.927,1.691,1.132,0.499,0.905,0.838,�k�k��,4.5,�L
2017/09/28,09:00,0.900,1.406,0.930,1.691,1.130,0.501,0.907,0.839,�k�k��,4.1,�L
2017/09/28,09:10,0.901,1.404,0.926,1.691,1.129,0.501,0.906,0.836,�k�k��,3.9,�L
2017/09/28,09:20,0.889,1.392,0.918,1.674,1.113,0.496,0.898,0.833,��,3.7,�L
2017/09/28,09:30,0.882,1.382,0.914,1.665,1.105,0.497,0.898,0.833,�k�k��,3.7,�L
2017/09/28,09:40,0.887,1.390,0.915,1.671,1.110,0.499,0.901,0.834,�k,5.4,�L
2017/09/28,09:50,0.896,1.400,0.922,1.681,1.115,0.500,0.904,0.835,�k�k��,6.0,�L
2017/09/28,10:00,0.901,1.407,0.929,1.685,1.118,0.501,0.908,0.839,�k�k��,6.8,�L
2017/09/28,10:10,0.904,1.407,0.928,1.696,1.118,0.501,0.908,0.840,�k,6.0,�L
2017/09/28,10:20,0.906,1.414,0.931,1.696,1.123,0.503,0.906,0.842,�k�k��,6.0,�L
2017/09/28,10:30,0.907,1.417,0.930,1.701,1.124,0.504,0.908,0.843,�k�k��,7.7,�L
2017/09/28,10:40,0.908,1.417,0.932,1.704,1.127,0.503,0.910,0.843,�k�k��,8.1,�L
2017/09/28,10:50,0.907,1.415,0.932,1.707,1.127,0.506,0.911,0.844,�k�k��,9.1,�L
2017/09/28,11:00,0.908,1.414,0.930,1.706,1.128,0.503,0.909,0.840,�k�k��,8.8,�L
2017/09/28,11:10,0.908,1.421,0.931,1.706,1.129,0.505,0.909,0.841,�k�k��,8.6,�L
2017/09/28,11:20,0.908,1.417,0.932,1.707,1.131,0.504,0.909,0.841,�k��,8.2,�L
2017/09/28,11:30,0.906,1.422,0.934,1.706,1.134,0.504,0.912,0.843,�k�k��,9.3,�L
2017/09/28,11:40,0.910,1.418,0.933,1.707,1.135,0.503,0.911,0.845,�k�k��,9.0,�L
2017/09/28,11:50,0.907,1.417,0.933,1.711,1.137,0.503,0.913,0.842,�k�k��,7.9,�L
2017/09/28,12:00,0.908,1.419,0.932,1.713,1.137,0.503,0.912,0.844,�k�k��,8.2,�L
2017/09/28,12:10,0.908,1.422,0.932,1.712,1.137,0.503,0.913,0.845,�k�k��,8.9,�L
2017/09/28,12:20,0.908,1.425,0.935,1.712,1.139,0.503,0.913,0.844,�k�k��,10.9,�L
2017/09/28,12:30,0.910,1.425,0.935,1.717,1.143,0.502,0.915,0.845,�k,9.9,�L
2017/09/28,12:40,0.911,1.425,0.937,1.716,1.144,0.504,0.914,0.846,�k�k��,9.5,�L
2017/09/28,12:50,0.912,1.428,0.936,1.718,1.146,0.502,0.916,0.848,�k�k��,11.0,�L
2017/09/28,13:00,0.910,1.431,0.936,1.720,1.145,0.503,0.915,0.847,�k�k��,11.0,��
2017/09/28,13:10,0.910,1.428,0.936,1.721,1.148,0.503,0.916,0.848,�k,8.9,��
2017/09/28,13:20,0.909,1.428,0.934,1.721,1.149,0.501,0.915,0.846,�k�k��,13.0,��
2017/09/28,13:30,0.911,1.427,0.935,1.725,1.150,0.501,0.916,0.849,�k�k��,12.5,��
2017/09/28,13:40,0.912,1.426,0.935,1.723,1.148,0.501,0.917,0.848,�k,11.7,�L
2017/09/28,13:50,0.912,1.427,0.934,1.725,1.153,0.501,0.916,0.847,�k,10.8,�L
2017/09/28,14:00,0.910,1.425,0.934,1.726,1.150,0.499,0.917,0.849,�k,13.3,�L
2017/09/28,14:10,0.908,1.411,0.928,1.715,1.142,0.499,0.912,0.843,�k�k��,13.5,�L
2017/09/28,14:20,0.907,1.412,0.931,1.708,1.141,0.499,0.909,0.844,�k,15.7,�L
2017/09/28,14:30,0.910,1.416,0.931,1.711,1.142,0.501,0.911,0.844,�k�k��,14.1,�L
2017/09/28,14:40,0.910,1.418,0.932,1.712,1.148,0.500,0.911,0.843,�k,13.3,�L
2017/09/28,14:50,0.909,1.417,0.933,1.710,1.145,0.501,0.911,0.844,�k,10.6,�L
2017/09/28,15:00,0.909,1.419,0.934,1.708,1.149,0.502,0.912,0.843,�k,10.3,�L
2017/09/28,15:10,0.907,1.419,0.936,1.714,1.149,0.504,0.913,0.843,�k�k��,12.1,�L
2017/09/28,15:20,0.911,1.419,0.934,1.716,1.150,0.506,0.913,0.844,�k,11.6,�L
2017/09/28,15:30,0.910,1.422,0.935,1.715,1.149,0.506,0.912,0.842,�k�k��,12.7,�L
2017/09/28,15:40,0.910,1.420,0.936,1.716,1.151,0.506,0.913,0.844,�k�k��,11.6,�L
2017/09/28,15:50,0.911,1.424,0.938,1.715,1.151,0.504,0.912,0.844,�k�k��,9.9,�L
2017/09/28,16:00,0.911,1.424,0.939,1.717,1.149,0.505,0.914,0.845,�k�k��,8.7,��
2017/09/28,16:10,0.910,1.425,0.936,1.717,1.150,0.504,0.912,0.844,�k�k��,8.4,��
2017/09/28,16:20,0.910,1.422,0.937,1.719,1.150,0.505,0.913,0.847,�k�k��,8.3,��
2017/09/28,16:30,0.910,1.428,0.936,1.718,1.152,0.502,0.913,0.847,�k�k��,8.5,��
2017/09/28,16:40,0.911,1.428,0.937,1.720,1.154,0.502,0.912,0.846,�k�k��,8.4,��
2017/09/28,16:50,0.910,1.427,0.936,1.719,1.154,0.502,0.911,0.846,�k�k��,7.7,��
2017/09/28,17:00,0.911,1.428,0.934,1.720,1.157,0.501,0.911,0.847,�k�k��,7.6,��
2017/09/28,17:10,0.909,1.427,0.934,1.717,1.153,0.501,0.912,0.846,�k�k��,5.6,��
2017/09/28,17:20,0.910,1.430,0.933,1.720,1.156,0.499,0.912,0.846,�k�k��,5.2,��
2017/09/28,17:30,0.908,1.428,0.934,1.720,1.157,0.501,0.912,0.848,�k,6.8,��
2017/09/28,17:40,0.908,1.429,0.935,1.722,1.160,0.502,0.914,0.849,�k,6.2,��
2017/09/28,17:50,0.906,1.428,0.932,1.720,1.158,0.501,0.912,0.849,�k,6.3,��
2017/09/28,18:00,0.908,1.430,0.934,1.719,1.157,0.499,0.915,0.848,�k,6.0,��
2017/09/28,18:10,0.909,1.429,0.933,1.723,1.159,0.501,0.916,0.846,�k,5.4,��
2017/09/28,18:20,0.906,1.430,0.935,1.721,1.158,0.499,0.914,0.848,�k�k��,5.7,��
2017/09/28,18:30,0.904,1.427,0.935,1.718,1.159,0.501,0.916,0.849,�k�k��,6.1,��
2017/09/28,18:40,0.907,1.430,0.932,1.720,1.160,0.497,0.916,0.847,�k,5.2,��
2017/09/28,18:50,0.909,1.430,0.935,1.720,1.159,0.500,0.916,0.847,�k,5.4,��
2017/09/28,19:00,0.908,1.432,0.932,1.726,1.160,0.499,0.915,0.848,�k�k��,5.8,��
2017/09/28,19:10,0.910,1.432,0.936,1.723,1.159,0.500,0.915,0.849,�k,6.4,��
2017/09/28,19:20,0.909,1.433,0.936,1.723,1.162,0.500,0.916,0.849,�k,5.7,��
2017/09/28,19:30,0.909,1.429,0.933,1.724,1.163,0.500,0.916,0.845,�k,7.0,��
2017/09/28,19:40,0.910,1.429,0.936,1.722,1.163,0.498,0.918,0.848,�k,6.8,�L
2017/09/28,19:50,0.911,1.431,0.932,1.722,1.164,0.500,0.916,0.849,�k,4.6,�L
2017/09/28,20:00,0.908,1.433,0.934,1.724,1.162,0.501,0.918,0.846,�k�k��,5.8,�L
2017/09/28,20:10,0.909,1.434,0.934,1.723,1.162,0.499,0.916,0.850,�k�k��,5.8,��
2017/09/28,20:20,0.909,1.433,0.935,1.723,1.165,0.501,0.917,0.848,�k�k��,5.5,��
2017/09/28,20:30,0.909,1.434,0.934,1.723,1.163,0.499,0.916,0.845,�k,5.2,��
2017/09/28,20:40,0.908,1.431,0.933,1.726,1.164,0.500,0.918,0.847,�k,5.7,��
2017/09/28,20:50,0.910,1.431,0.934,1.725,1.165,0.500,0.918,0.847,�k,5.3,��
2017/09/28,21:00,0.909,1.432,0.935,1.723,1.167,0.500,0.916,0.848,�k�k��,5.5,��
2017/09/28,21:10,0.911,1.431,0.936,1.725,1.165,0.501,0.918,0.847,�k,5.0,��
2017/09/28,21:20,0.910,1.432,0.937,1.725,1.165,0.501,0.918,0.848,�k�k��,4.2,��
2017/09/28,21:30,0.909,1.434,0.934,1.725,1.165,0.499,0.917,0.849,�k�k��,5.0,��
2017/09/28,21:40,0.908,1.433,0.935,1.727,1.168,0.501,0.918,0.849,�k,5.2,��
2017/09/28,21:50,0.910,1.433,0.935,1.725,1.167,0.500,0.918,0.849,�k,4.4,��
2017/09/28,22:00,0.911,1.436,0.936,1.723,1.166,0.499,0.916,0.849,�k�k��,5.5,��
2017/09/28,22:10,0.910,1.434,0.935,1.728,1.167,0.501,0.919,0.847,�k,4.7,��
2017/09/28,22:20,0.909,1.431,0.937,1.728,1.168,0.500,0.917,0.848,�k,4.5,��
2017/09/28,22:30,0.910,1.436,0.935,1.730,1.170,0.502,0.917,0.848,�k,4.1,��
2017/09/28,22:40,0.909,1.433,0.934,1.727,1.170,0.501,0.917,0.849,�k�k��,3.9,��
2017/09/28,22:50,0.910,1.434,0.934,1.727,1.169,0.502,0.918,0.850,�k�k��,3.6,��
2017/09/28,23:00,0.909,1.431,0.936,1.725,1.168,0.500,0.918,0.849,�k�k��,3.5,��
2017/09/28,23:10,0.908,1.435,0.936,1.727,1.170,0.501,0.917,0.848,�k�k��,3.7,��
2017/09/28,23:20,0.909,1.435,0.935,1.727,1.168,0.499,0.918,0.849,�k�k��,3.6,��
2017/09/28,23:30,0.907,1.434,0.937,1.727,1.169,0.501,0.918,0.849,�k�k��,2.6,��
2017/09/28,23:40,0.908,1.436,0.935,1.727,1.167,0.500,0.918,0.849,�k�k��,2.9,��
2017/09/28,23:50,0.908,1.435,0.936,1.725,1.170,0.501,0.916,0.848,�k�k��,2.8,��
